Regional Weather Roundup
Issued by NWS

Home | Current Version | Previous Version | Graphics & Text | Print | Product List | Glossary On
Versions: 1 2 3 4 5 6 7 8 9 10 11 12 13 14 15 16 17 18 19 20 21 22 23 24 25 26 27 28 29 30 31 32 33 34 35 36 37 38 39 40 41 42 43 44 45 46 47 48 49 50
000
ASUS44 KMEG 311900
RWRTN
TENNESSEE HOURLY STATE WEATHER ROUNDUP
NATIONAL WEATHER SERVICE MEMPHIS TN
200 PM CDT THU JUL 31 2014

TNZ002-004-019-021-049-052-054-088>092-312000-
WEST TENNESSEE

CITY           SKY/WX    TMP DP  RH WIND       PRES   REMARKS
MEMPHIS INTL   CLOUDY    79  65  62 VRB7      30.10S
NWS MEMPHIS      N/A     77 N/A N/A MISG        N/A
JACKSON        CLOUDY    80  57  45 CALM      30.10F
DYERSBURG      CLOUDY    77  61  57 NW5       30.11F
UNION CITY     PTSUNNY   79  63  57 W5        30.10S
PARIS          PTSUNNY   77  61  57 W3        30.12S
SAVANNAH       SUNNY     81  64  57 SE5       30.10F
$$

TNZ008-025-027-028-033-062-065-066-312000-
NORTH MIDDLE TENNESSEE

CITY           SKY/WX    TMP DP  RH WIND       PRES   REMARKS
NASHVILLE      PTSUNNY   85  55  35 CALM      30.09F
CLARKSVILLE    CLOUDY    83  54  36 VRB3      30.09F
COOKEVILLE     MOSUNNY   81  61  50 CALM      30.11F
CROSSVILLE     PTSUNNY   78  59  51 CALM      30.14F
$$

TNZ061-075-076-078-094-096-097-312000-
SOUTH MIDDLE TENNESSEE

CITY           SKY/WX    TMP DP  RH WIND       PRES   REMARKS
FAYETTEVILLE   SUNNY     77  57  50 NE7G36    30.10F
WINCHESTER     SUNNY     81  61  50 NW5       30.10F
SHELBYVILLE    PTSUNNY   82  61  47 NW3       30.11S
$$

TNZ017-018-042-046-047-312000-
NORTHEAST TENNESSEE

CITY           SKY/WX    TMP DP  RH WIND       PRES   REMARKS
TRI CITIES     PTSUNNY   79  59  50 VRB3      30.14F
ELIZABETHTON   MOCLDY    73  61  64 E6        30.15S
$$

TNZ012-013-036-069-073-074-312000-
CENTRAL EAST TENNESSEE

CITY           SKY/WX    TMP DP  RH WIND       PRES   REMARKS
KNOXVILLE      PTSUNNY   78  62  57 S5        30.10F
OAK RIDGE      MOSUNNY   80  61  52 CALM      30.12F
GATLINBURG     PTCLDY    79  61  53 CALM      30.10F
$$

TNZ083-085-099-312000-
SOUTHEAST TENNESSEE

CITY           SKY/WX    TMP DP  RH WIND       PRES   REMARKS
CHATTANOOGA    CLOUDY    78  61  55 N3        30.10F
$$

SKY/WX REPORTED AS FAIR MEANS FEW OR NO CLOUDS BELOW
12 THOUSAND FEET.



USA.gov is the U.S. government's official web portal to all federal, state and local government web resources and services.